TITAN 3C TRANSTAGE DEB, 19592

Orbit data source: Space-Track

TITAN 3C TRANSTAGE DEB, 19592 is space debris in HEO originally from a launch on Tue, 21 Dec 1965 UTC launched from the Air Force Eastern Test Range (AFETR). Debris objects in space refer to the collection of defunct objects orbiting the Earth. Examples of debris include non-operational satellites, rocket bodies, and fragments generated from explosions, collisions, or faulty payload assembly.

Loading next visibility...
Identifier
19592, 1965-108AA
Orbit
HEO
Last TLE update
19 hours ago
Origin
Manufacturer
Unknown
Mission
Spacecraft
Bus & Motor
Unknown
Mass
Unknown
Launch date (UTC)
1965-12-21 (60 years ago)
Launch vehicle
Unknown
Launch site
Air Force Eastern Test Range (AFETR)
Object type
Payload
Rocket body
Debris
Shape & HBR
Unknown
Radar Cross Section
Medium (>0.1 m² and <1 m²)

Expand to show TLE details & history

TLE from 19 hours ago
0 TITAN 3C TRANSTAGE DEB
1 19592U 65108AA  25189.50139333 -.00000301  00000-0 -13200-2 0  9992
2 19592  26.9471 348.9305 6709823 358.5907 267.9738  2.84015621335564
Epoch: 2025-07-08T12:02Z
TLE epoch observation values (Epoch: 2025-07-08T12:02:00.383Z)
Latitude
-11.15655°
Longitude
84.52508°
Altitude
22,540.65 km
Speed
2.94 km/s
True Right ascension
12h 46m 53s
True Declination
-11° 08' 26"
Sunlit
Object was in daylight at epoch
Visualization orbit readout
Latitude
-19.84795°
Longitude
-163.5659°
Altitude
1,601.081 km
Speed
9 km/s
Apparent Right ascension
22h 04m 44s
Apparent Declination
-64° 40' 51"
Sunlit
Object is in full shadow
Visualization observer readout
Local Sidereal Time
19:04:08
Azimuth
161.125° S
Elevation
-20.408°
Doppler factor
1
Orbital elements
Apogee altitude
28,822.646 km
Perigee altitude
552.924 km
Semi-major axis
21,065.922 km
Eccentricity
0.67098
Inclination
26.9471°
RAAN
348.9305°
Arg. of periapsis
358.5907°
True anomaly
Unknown
Mean anomaly
267.9738°
Eccentric anomaly
Unknown
Mean motion
0.70986 °/min
Orbital period
507.14 mins
BSTAR
-0.00132
Loading maneuver chart data...
Loading SW <> Apogee altitude chart data...

TITAN 3C TRANSTAGE DEB Visibility forecast

Observer location: undefined°, undefined°

Span
Click to sort rows by Start time (UTC) header in descending order
Start Az.
Max El. time (UTC)
Max El. Az.
Max El.
End time (UTC)
End Az.
382 mins2025-07-09 15:44:43.739Z230.742° WSW2025-07-09 15:54:43.739Z160.136° S39.548°2025-07-09 22:06:43.739Z134.64° SE
|